Time,TemperatureF,DewpointF,PressureIn,WindDirection,WindDirectionDegrees,WindSpeedMPH,WindSpeedGustMPH,Humidity,HourlyPrecipIn,Conditions,Clouds,dailyrainin,SolarRadiationWatts/m^2,SoftwareType,DateUTC
2013-03-04 00:00:00,15.0,13.0,-100.00,North,-999,0.0,0.0,93,0.00,,,-99.99,0.000000,,2013-03-04 08:00:00,
2013-03-04 00:52:00,15.0,13.0,-100.00,North,-999,0.0,0.0,93,0.00,,,-99.99,0.000000,,2013-03-04 08:52:00,
2013-03-04 01:00:00,16.0,14.0,-100.00,North,-999,0.0,0.0,92,0.00,,,-99.99,0.000000,,2013-03-04 09:00:00,
2013-03-04 02:00:00,17.0,13.0,-100.00,North,-999,0.0,0.0,85,0.00,,,-99.99,0.000000,,2013-03-04 10:00:00,
2013-03-04 03:00:00,20.0,16.0,-100.00,North,-999,0.0,0.0,83,0.00,,,-99.99,0.000000,,2013-03-04 11:00:00,
2013-03-04 03:52:00,20.0,16.0,-100.00,North,-999,0.0,0.0,83,0.00,,,-99.99,0.000000,,2013-03-04 11:52:00,
2013-03-04 04:00:00,20.0,15.0,-100.00,North,-999,0.0,0.0,79,0.00,,,-99.99,0.000000,,2013-03-04 12:00:00,
2013-03-04 05:00:00,20.0,15.0,-100.00,North,-999,0.0,0.0,80,0.00,,,-99.99,0.000000,,2013-03-04 13:00:00,
2013-03-04 06:00:00,20.0,14.0,-100.00,North,-999,0.0,0.0,78,0.00,,,-99.99,0.000000,,2013-03-04 14:00:00,
2013-03-04 07:00:00,20.0,14.0,-100.00,North,-999,0.0,0.0,78,0.00,,,-99.99,5.000000,,2013-03-04 15:00:00,
2013-03-04 08:00:00,22.0,14.0,-100.00,North,-999,0.0,0.0,71,0.00,,,-99.99,83.000000,,2013-03-04 16:00:00,
2013-03-04 11:00:00,25.0,16.0,-100.00,North,-999,0.0,0.0,69,0.00,,,-99.99,625.000000,,2013-03-04 19:00:00,
2013-03-04 12:00:00,28.0,17.0,-100.00,North,-999,0.0,0.0,64,0.00,,,-99.99,695.000000,,2013-03-04 20:00:00,
2013-03-04 13:00:00,31.0,17.0,-100.00,North,-999,0.0,0.0,56,0.00,,,-99.99,710.000000,,2013-03-04 21:00:00,
2013-03-04 15:00:00,36.0,16.0,-100.00,North,-999,0.0,0.0,44,0.00,,,-99.99,482.000000,,2013-03-04 23:00:00,
2013-03-04 17:00:00,31.0,15.0,-100.00,North,-999,0.0,0.0,51,0.00,,,-99.99,221.000000,,2013-03-05 01:00:00,
2013-03-04 18:00:00,26.0,15.0,-100.00,North,-999,0.0,0.0,62,0.00,,,-99.99,57.000000,,2013-03-05 02:00:00,
2013-03-04 18:52:00,26.0,15.0,-100.00,North,-999,0.0,0.0,62,0.00,,,-99.99,57.000000,,2013-03-05 02:52:00,
2013-03-04 19:00:00,25.0,15.0,-100.00,North,-999,0.0,0.0,65,0.00,,,-99.99,0.000000,,2013-03-05 03:00:00,
2013-03-04 21:00:00,24.0,13.0,-100.00,North,-999,0.0,0.0,62,0.00,,,-99.99,0.000000,,2013-03-05 05:00:00,
2013-03-04 22:00:00,28.0,14.0,-100.00,North,-999,0.0,0.0,54,0.00,,,-99.99,0.000000,,2013-03-05 06:00:00,
2013-03-04 22:52:00,28.0,14.0,-100.00,North,-999,0.0,0.0,54,0.00,,,-99.99,0.000000,,2013-03-05 06:52:00,
2013-03-04 23:00:00,29.0,16.0,-100.00,North,-999,0.0,0.0,57,0.00,,,-99.99,0.000000,,2013-03-05 07:00:00,
2013-03-04 23:52:00,29.0,16.0,-100.00,North,-999,0.0,0.0,57,0.00,,,-99.99,0.000000,,2013-03-05 07:52:00,